User: anonymous   Login
Location: Oshawa
(43.9000°N, 78.8670°W)
Time: 12:56:56
(UTC-04:00)
Language:

Iridium 98 - Orbit

View from above orbital plane
View from above orbital plane
View from above satellite
View from above satellite

Ground track
Ground track

The orbit data is extracted from the following two-line orbital elements,

1 27451U 02031B   15245.55945172  .00000162  00000-0  50889-4 0  9993
2 27451  86.3947 295.4404 0002294  98.7342  12.9414 14.34222236697615
Epoch (UTC): 02 September 2015 13:25:36
Eccentricity: 0.0002294
inclination: 86.3947°
perigee height: 776 km
apogee height: 779 km
right ascension of ascending node: 295.4404°
argument of perigee: 98.7342°
revolutions per day: 14.34222236
mean anomaly at epoch: 12.9414°
orbit number at epoch: 69761

The dashed part of the orbit path shows where the satellite is in the earth's shadow,  

DLR